ONEWEB-0022 (45135 NORAD) Tracking and Keplerian Element Data

This shows tracking and keplerian element data for the satellite.

Feedback or suggestion? Click here.




ElementValue
Catalog45135
NameONEWEB-0022
Epoch Orbit3989
Epoch Day304.91667824
Epoch Year2020
RAAN84.9315
Inclination87.9195
Eccentricity0.0020005
Argument of Perigee108.1742
Mean Anonmoly92.0271
Mean Motion13.40766663
Decay Rate-8.722E-05
L11 45135U 20008E 20304.91667824 -.00008722 00000-0 -15876-1 0 9999
L22 45135 87.9195 84.9315 0020005 108.1742 92.0271 13.40766663 39891

Live tracking and technical data element details for ONEWEB-0022 (NORAD 45135). ONEWEB-0022 can be tracked NOW for your location showing map with azimuth and elevation plus other details from your city location.

Track the satellite on the map from your city or location and see movement details for azimuth, elevation, latitude, longitude, range, height, and movement on the map or in text.







IsCatalogInMostPopularTable: catalog: 45135, numindb: 59
Update: records affected: 1



GetName: 45135 ONEWEB-0022

Hit Count: updated at: Sat, 31 Oct 2020 13:18:21 GMT